Tracking 19832 objects as of 25-Aug-2019
HD Live streaming from Space Station
objects crossing your sky now

COSMOS 2251 DEB

Track COSMOS 2251 DEB now!
10-day predictions


NORAD ID: 34129
Int'l Code: 1993-036LA
Perigee: 690.4 km
Apogee: 761.8 km
Inclination: 74.0 °
Period: 99.2 minutes
Semi major axis: 7097 km
RCS: 0.0571 m2 (small)
Launch date: June 16, 1993
Source: Commonwealth of Independent States (former USSR) (CIS)
Launch site: PLESETSK MISSILE AND SPACE COMPLEX (PKMTR)

Note: This is SATELLITE DEBRIS
aabbcc
Your satellite tracking list
Your tracking list is empty




NASA's NSSDC Master Catalog

Two Line Element Set (TLE):
1 34129U 93036LA  19236.87445347 +.00000347 +00000-0 +91546-4 0  9996
2 34129 074.0468 036.3968 0050252 346.2743 013.7048 14.52053789277494
Source of the keplerian elements: AFSPC